This demonstration page uses our WeatherBlox Daily Observations layout. Learn more.

Left ArrowRight Arrow

40.92945, -100.16068

Hourly Observations for May 26, 2015

Temp ( °F °C ) Dew Point ( °F °C ) Humidity (%) Winds ( mph kmh ) Pressure ( in mb ) Visibility ( mi km ) Precip ( " mm )
12:15 am 00:15 Partly Cloudy 58 14.7 55 12.7 88 88 N 15 24 29.77 1008 10 16.0934 N/A
12:35 am 00:35 Partly Cloudy 59 14.8 55 13 89 89 N 12 19 29.77 1008 10 16.0934 N/A
12:55 am 00:55 Partly Cloudy 59 14.8 55 12.8 88 88 NNW 10 17 29.77 1008 10 16.0934 N/A
1:15 am 01:15 Partly Cloudy 58 14.6 55 12.7 88 88 NNW 12 19 29.77 1008 10 16.0934 N/A
1:35 am 01:35 Partly Cloudy 58 14.3 55 12.5 89 89 N 9 15 29.8 1009 10 16.0934 N/A
1:55 am 01:55 Mostly Cloudy 58 14.3 55 12.6 90 90 WNW 10 17 29.8 1009 10 16.0934 N/A
2:15 am 02:15 Cloudy 58 14.3 55 12.6 90 90 WNW 9 15 29.8 1009 10 16.0934 N/A
2:35 am 02:35 Cloudy 57 14 54 12.2 89 89 WNW 10 17 29.8 1009 10 16.0934 N/A
2:55 am 02:55 Mostly Cloudy 56 13.5 54 12 91 91 WNW 9 15 29.83 1010 10 16.0934 N/A
3:15 am 03:15 Mostly Cloudy with Rain 56 13.6 54 12.3 92 92 WNW 10 17 29.8 1009 10 16.0934 N/A
3:35 am 03:35 Cloudy with Drizzle 56 13.5 54 12.3 93 93 WNW 12 19 29.83 1010 10 16.0934 0.01 0.254
3:55 am 03:55 Cloudy 56 13.3 54 12.2 93 93 WNW 12 19 29.83 1010 10 16.0934 0.01 0.254
4:15 am 04:15 Cloudy with Drizzle 56 13.1 54 12.1 94 94 NW 12 19 29.8 1009 7 11.26538 N/A
4:35 am 04:35 Partly Cloudy 55 13 54 12 94 94 WNW 9 15 29.83 1010 10 16.0934 0.01 0.254
4:55 am 04:55 Partly Cloudy 55 12.8 54 12 95 95 WNW 7 11 29.8 1009 10 16.0934 0.01 0.254
5:15 am 05:15 Partly Cloudy 55 12.8 54 12 95 95 NW 8 13 29.8 1009 10 16.0934 N/A
5:35 am 05:35 Partly Cloudy 55 12.9 54 12 94 94 WNW 8 13 29.83 1010 10 16.0934 N/A
5:55 am 05:55 Partly Cloudy 55 12.8 54 12 95 95 NW 12 19 29.83 1010 10 16.0934 N/A
6:15 am 06:15 Sunny 55 12.6 53 11.7 94 94 NW 9 15 29.83 1010 10 16.0934 N/A
6:35 am 06:35 Partly Cloudy 55 12.8 54 12 95 95 NW 12 19 29.85 1011 10 16.0934 N/A
6:55 am 06:55 Mostly Cloudy 56 13.5 55 12.6 94 94 NNW 9 15 29.85 1011 10 16.0934 N/A
7:15 am 07:15 Cloudy 56 13.6 55 12.7 94 94 N 9 15 29.85 1011 10 16.0934 N/A
7:35 am 07:35 Cloudy 57 13.7 55 12.5 93 93 N 16 26 29.88 1012 10 16.0934 N/A
7:55 am 07:55 Cloudy 56 13.6 53 11.8 89 89 NNW 17 28 29.88 1012 10 16.0934 N/A
8:15 am 08:15 Cloudy 57 13.7 53 11.7 88 88 N 15 24 29.88 1012 10 16.0934 N/A
8:35 am 08:35 Mostly Cloudy 58 14.5 54 12.3 87 87 NNW 13 20 29.88 1012 10 16.0934 N/A
8:55 am 08:55 Mostly Cloudy 58 14.3 53 11.7 85 85 NNW 16 26 29.88 1012 10 16.0934 N/A
9:15 am 09:15 Mostly Cloudy 58 14.7 54 12 84 84 NNW 16 26 29.91 1013 10 16.0934 N/A
9:35 am 09:35 Mostly Cloudy 58 14.4 53 11.4 82 82 NNW 14 22 29.91 1013 10 16.0934 N/A
9:55 am 09:55 Mostly Cloudy 60 15.4 53 11.4 77 77 NW 13 20 29.91 1013 10 16.0934 N/A
10:15 am 10:15 Mostly Cloudy 60 15.4 53 11.4 77 77 NNW 14 22 29.91 1013 10 16.0934 N/A
10:35 am 10:35 Mostly Cloudy 59 15.1 52 11.1 77 77 NNW 14 22 29.91 1013 10 16.0934 N/A
10:55 am 10:55 Cloudy 61 16.1 53 11.6 75 75 NW 12 19 29.88 1012 10 16.0934 N/A
11:15 am 11:15 Mostly Cloudy 61 16 53 11.7 76 76 NNW 15 24 29.94 1014 10 16.0934 N/A
11:35 am 11:35 Mostly Cloudy 59 15.2 51 10.8 75 75 NNW 17 28 29.94 1014 10 16.0934 N/A
11:55 am 11:55 Mostly Cloudy 60 15.7 52 11.3 75 75 NNW 12 19 29.94 1014 10 16.0934 N/A
12:15 pm 12:15 Mostly Cloudy 60 15.5 52 11.3 76 76 NNW 12 19 29.94 1014 10 16.0934 N/A
12:35 pm 12:35 Mostly Cloudy 61 16.1 53 11.4 74 74 NNW 12 19 29.94 1014 10 16.0934 N/A
12:55 pm 12:55 Partly Cloudy 62 16.7 53 11.5 72 72 NW 12 19 29.91 1013 10 16.0934 N/A
1:15 pm 13:15 Partly Cloudy 64 17.7 53 11.9 69 69 N 10 17 29.91 1013 10 16.0934 N/A
1:35 pm 13:35 Partly Cloudy 64 18 53 11.4 66 66 N 12 19 29.91 1013 10 16.0934 N/A
1:55 pm 13:55 Sunny 65 18.6 53 11.8 65 65 N 12 19 29.91 1013 10 16.0934 N/A
2:15 pm 14:15 Partly Cloudy 66 19.1 53 11.6 62 62 NNW 14 22 29.91 1013 10 16.0934 N/A
2:35 pm 14:35 Partly Cloudy 66 18.8 52 11.1 61 61 NNW 13 20 29.91 1013 10 16.0934 N/A
2:55 pm 14:55 Sunny 68 19.8 52 11.3 58 58 N 12 19 29.88 1012 10 16.0934 N/A
3:15 pm 15:15 Sunny 69 20.3 53 11.5 57 57 N 14 22 29.88 1012 10 16.0934 N/A
3:35 pm 15:35 Sunny 68 20.2 53 11.5 58 58 NNW 15 24 29.88 1012 10 16.0934 N/A
3:55 pm 15:55 Partly Cloudy 69 20.5 52 10.9 54 54 N 14 22 29.88 1012 10 16.0934 N/A
4:15 pm 16:15 Sunny 69 20.7 52 11.3 55 55 NNW 8 13 29.88 1012 10 16.0934 N/A
4:35 pm 16:35 Sunny 68 20.2 51 10.6 54 54 N 13 20 29.88 1012 10 16.0934 N/A
4:55 pm 16:55 Sunny 68 20.1 51 10.6 55 55 N 5 7 29.88 1012 10 16.0934 N/A
5:15 pm 17:15 Sunny 70 20.9 52 11 53 53 N 9 15 29.88 1012 10 16.0934 N/A
5:35 pm 17:35 Sunny 70 21 51 10.8 52 52 NNW 10 17 29.88 1012 10 16.0934 N/A
5:55 pm 17:55 Partly Cloudy 70 21.1 52 10.9 52 52 N 6 9 29.88 1012 10 16.0934 N/A
6:15 pm 18:15 Partly Cloudy 70 20.9 51 10.4 51 51 NNE 10 17 29.88 1012 10 16.0934 N/A
6:35 pm 18:35 Sunny 69 20.3 49 9.7 51 51 N 9 15 29.88 1012 10 16.0934 N/A
6:55 pm 18:55 Sunny 69 20.8 50 9.9 50 50 N 6 9 29.88 1012 10 16.0934 N/A
7:15 pm 19:15 Sunny 68 20.2 52 11.2 56 56 NE 6 9 29.88 1012 10 16.0934 N/A
7:35 pm 19:35 Sunny 68 19.8 51 10.5 55 55 NNE 6 9 29.88 1012 10 16.0934 N/A
7:55 pm 19:55 Sunny 66 19.1 51 10.7 58 58 NE 3 6 29.91 1013 10 16.0934 N/A
8:15 pm 20:15 Sunny 65 18.3 53 11.5 65 65 ENE 5 7 29.91 1013 10 16.0934 N/A
8:35 pm 20:35 Sunny 63 17.4 53 11.7 69 69 ENE 5 7 29.91 1013 10 16.0934 N/A
8:55 pm 20:55 Sunny 62 16.7 52 11.2 70 70 N N/A 29.94 1014 10 16.0934 N/A
9:15 pm 21:15 Clear 64 17.8 50 9.9 60 60 N N/A 29.94 1014 10 16.0934 N/A
9:35 pm 21:35 Clear 63 17 49 9.5 62 62 N N/A 29.94 1014 10 16.0934 N/A
9:55 pm 21:55 Clear 61 16 50 10 68 68 N N/A 29.97 1015 10 16.0934 N/A
10:15 pm 22:15 Clear 57 13.8 49 9.5 75 75 SW 3 6 30 1016 10 16.0934 N/A
10:35 pm 22:35 Clear 56 13.1 49 9.6 79 79 N N/A 30.03 1017 10 16.0934 N/A
10:55 pm 22:55 Clear 55 12.9 50 10.1 83 83 N N/A 30.03 1017 10 16.0934 N/A
11:15 pm 23:15 Clear 53 11.7 48 9 84 84 WSW 3 6 30.03 1017 10 16.0934 N/A
11:35 pm 23:35 Clear 55 12.7 51 10.5 87 87 N N/A 30.03 1017 10 16.0934 N/A
11:55 pm 23:55 Clear 55 13 50 10.1 83 83 N N/A 30.03 1017 10 16.0934 N/A

Powered by AerisWeather